| time (UTC) | temp F | wind direction | speed MPH | gust MPH | rain 1hr in | rain 24hr in | rain mn in | humidity % | barometer mb |
| 20260906031147 | 77 | 266 | 2.0 | 3.0 | 0.00 | 0.00 | 0.00 | 45 | 1019.7 |
| 20260906030648 | 78 | 266 | 2.0 | 3.0 | 0.00 | 0.00 | 0.00 | 46 | 1019.6 |
| 20260906030148 | 78 | 280 | 2.0 | 3.0 | 0.00 | 0.00 | 0.00 | 45 | 1019.6 |
| 20260906025648 | 78 | 265 | 1.0 | 3.0 | 0.00 | 0.00 | 0.00 | 44 | 1019.6 |
| 20260906024646 | 79 | 273 | 1.0 | 2.0 | 0.00 | 0.00 | 0.00 | 44 | 1019.4 |
| 20260906024146 | 79 | 266 | 0.0 | 2.0 | 0.00 | 0.00 | 0.00 | 44 | 1019.4 |
| 20260906022639 | 80 | 247 | 1.0 | 4.0 | 0.00 | 0.00 | 0.00 | 43 | 1019.3 |
| 20260906021633 | 80 | 263 | 0.0 | 3.0 | 0.00 | 0.00 | 0.00 | 42 | 1019.3 |
| 20260906021131 | 80 | 264 | 1.0 | 2.0 | 0.00 | 0.00 | 0.00 | 42 | 1019.3 |
| 20260906020630 | 80 | 254 | 1.0 | 2.0 | 0.00 | 0.00 | 0.00 | 41 | 1019.2 |
| 20260906020124 | 80 | 245 | 0.0 | 2.0 | 0.00 | 0.00 | 0.00 | 42 | 1019.3 |
| 20260906015116 | 80 | 278 | 1.0 | 3.0 | 0.00 | 0.00 | 0.00 | 42 | 1019.3 |
| 20260906014616 | 80 | 267 | 1.0 | 2.0 | 0.00 | 0.00 | 0.00 | 43 | 1019.3 |
| 20260906013618 | 80 | 256 | 1.0 | 3.0 | 0.00 | 0.00 | 0.00 | 44 | 1019.6 |
| 20260906012613 | 81 | 269 | 1.0 | 3.0 | 0.00 | 0.00 | 0.00 | 44 | 1019.4 |
| 20260906012108 | 81 | 263 | 1.0 | 4.0 | 0.00 | 0.00 | 0.00 | 43 | 1019.4 |
| 20260906011608 | 81 | 272 | 2.0 | 6.0 | 0.00 | 0.00 | 0.00 | 43 | 1019.6 |
| 20260906011109 | 81 | 299 | 2.0 | 6.0 | 0.00 | 0.00 | 0.00 | 41 | 1019.6 |
| 20260906010607 | 81 | 263 | 2.0 | 4.0 | 0.00 | 0.00 | 0.00 | 41 | 1019.4 |
| 20260906010107 | 81 | 234 | 2.0 | 6.0 | 0.00 | 0.00 | 0.00 | 41 | 1019.4 |
| 20260906005606 | 81 | 244 | 2.0 | 7.0 | 0.00 | 0.00 | 0.00 | 40 | 1019.4 |
| 20260906005106 | 81 | 307 | 2.0 | 7.0 | 0.00 | 0.00 | 0.00 | 42 | 1019.3 |
| 20260906004107 | 81 | 247 | 4.0 | 7.0 | 0.00 | 0.00 | 0.00 | 41 | 1019.3 |
| 20260906003608 | 81 | 197 | 3.0 | 7.0 | 0.00 | 0.00 | 0.00 | 41 | 1019.2 |
| 20260906003106 | 81 | 233 | 3.0 | 7.0 | 0.00 | 0.00 | 0.00 | 40 | 1019.3 |
| 20260906002105 | 82 | 233 | 2.0 | 6.0 | 0.00 | 0.00 | 0.00 | 39 | 1019.3 |
| 20260906001602 | 82 | 232 | 2.0 | 8.0 | 0.00 | 0.00 | 0.00 | 40 | 1019.3 |
| 20260906001102 | 82 | 207 | 2.0 | 8.0 | 0.00 | 0.00 | 0.00 | 40 | 1019.3 |
| 20260906000100 | 82 | 192 | 3.0 | 7.0 | 0.00 | 0.00 | 0.00 | 42 | 1019.3 |
| 20260905235559 | 81 | 229 | 2.0 | 6.0 | 0.00 | 0.00 | 0.00 | 42 | 1019.3 |
| 20260905235100 | 81 | 219 | 2.0 | 6.0 | 0.00 | 0.00 | 0.00 | 43 | 1019.3 |
| 20260905234601 | 81 | 188 | 3.0 | 5.0 | 0.00 | 0.00 | 0.00 | 44 | 1019.4 |
| 20260905234102 | 80 | 180 | 3.0 | 6.0 | 0.00 | 0.00 | 0.00 | 45 | 1019.4 |
| 20260905233600 | 79 | 187 | 2.0 | 6.0 | 0.00 | 0.00 | 0.00 | 49 | 1019.4 |
| 20260905232600 | 78 | 220 | 3.0 | 7.0 | 0.00 | 0.00 | 0.00 | 53 | 1019.6 |
| 20260905232058 | 80 | 218 | 3.0 | 8.0 | 0.00 | 0.00 | 0.00 | 49 | 1019.7 |
| 20260905231556 | 81 | 246 | 3.0 | 8.0 | 0.00 | 0.00 | 0.00 | 42 | 1019.6 |
| 20260905231057 | 81 | 246 | 3.0 | 6.0 | 0.00 | 0.00 | 0.00 | 42 | 1019.4 |
| 20260905230050 | 82 | 219 | 3.0 | 5.0 | 0.00 | 0.00 | 0.00 | 42 | 1019.4 |
| 20260905225048 | 83 | 187 | 2.0 | 5.0 | 0.00 | 0.00 | 0.00 | 39 | 1019.4 |
| 20260905224546 | 83 | 221 | 2.0 | 6.0 | 0.00 | 0.00 | 0.00 | 39 | 1019.4 |
| 20260905224046 | 83 | 192 | 3.0 | 8.0 | 0.00 | 0.00 | 0.00 | 38 | 1019.4 |
| 20260905223546 | 83 | 181 | 3.0 | 8.0 | 0.00 | 0.00 | 0.00 | 39 | 1019.4 |
| 20260905223047 | 83 | 173 | 3.0 | 6.0 | 0.00 | 0.00 | 0.00 | 39 | 1019.6 |
| 20260905222046 | 83 | 153 | 5.0 | 9.0 | 0.00 | 0.00 | 0.00 | 40 | 1019.7 |
| 20260905221546 | 83 | 172 | 5.0 | 12.0 | 0.00 | 0.00 | 0.00 | 40 | 1019.7 |
| 20260905221046 | 85 | 204 | 5.0 | 12.0 | 0.00 | 0.00 | 0.00 | 38 | 1019.6 |
| 20260905215546 | 86 | 153 | 3.0 | 7.0 | 0.00 | 0.00 | 0.00 | 33 | 1019.4 |
| 20260905215046 | 87 | 180 | 2.0 | 7.0 | 0.00 | 0.00 | 0.00 | 33 | 1019.4 |
| 20260905214546 | 87 | 256 | 3.0 | 8.0 | 0.00 | 0.00 | 0.00 | 32 | 1019.4 |
| 20260905214048 | 88 | 186 | 3.0 | 8.0 | 0.00 | 0.00 | 0.00 | 31 | 1019.6 |
| 20260905213546 | 89 | 148 | 2.0 | 7.0 | 0.00 | 0.00 | 0.00 | 32 | 1019.4 |
| 20260905213046 | 88 | 178 | 3.0 | 8.0 | 0.00 | 0.00 | 0.00 | 32 | 1019.4 |
| 20260905212545 | 88 | 193 | 3.0 | 8.0 | 0.00 | 0.00 | 0.00 | 31 | 1019.4 |
| 20260905212042 | 89 | 176 | 2.0 | 6.0 | 0.00 | 0.00 | 0.00 | 29 | 1019.6 |
| 20260905211542 | 90 | 163 | 2.0 | 6.0 | 0.00 | 0.00 | 0.00 | 29 | 1019.6 |
| 20260905211042 | 90 | 196 | 2.0 | 8.0 | 0.00 | 0.00 | 0.00 | 29 | 1019.6 |
| 20260905210042 | 93 | 202 | 2.0 | 8.0 | 0.00 | 0.00 | 0.00 | 27 | 1019.6 |
| 20260905205544 | 92 | 194 | 2.0 | 8.0 | 0.00 | 0.00 | 0.00 | 27 | 1019.6 |
| 20260905205042 | 92 | 244 | 2.0 | 9.0 | 0.00 | 0.00 | 0.00 | 27 | 1019.7 |
| 20260905203540 | 89 | 122 | 2.0 | 9.0 | 0.00 | 0.00 | 0.00 | 30 | 1019.9 |
| 20260905203040 | 89 | 134 | 3.0 | 9.0 | 0.00 | 0.00 | 0.00 | 29 | 1020.1 |
| 20260905202540 | 89 | 109 | 2.0 | 7.0 | 0.00 | 0.00 | 0.00 | 30 | 1020.0 |
| 20260905202041 | 89 | 163 | 3.0 | 7.0 | 0.00 | 0.00 | 0.00 | 29 | 1020.1 |
| 20260905201540 | 89 | 171 | 4.0 | 11.0 | 0.00 | 0.00 | 0.00 | 30 | 1020.1 |
| 20260905201040 | 90 | 142 | 4.0 | 11.0 | 0.00 | 0.00 | 0.00 | 30 | 1020.2 |
| 20260905200038 | 89 | 153 | 3.0 | 7.0 | 0.00 | 0.00 | 0.00 | 29 | 1020.4 |
| 20260905195538 | 89 | 131 | 3.0 | 7.0 | 0.00 | 0.00 | 0.00 | 30 | 1020.5 |
| 20260905195034 | 89 | 155 | 2.0 | 6.0 | 0.00 | 0.00 | 0.00 | 30 | 1020.5 |
| 20260905193534 | 90 | 157 | 3.0 | 8.0 | 0.00 | 0.00 | 0.00 | 27 | 1020.6 |
| 20260905192534 | 92 | 136 | 2.0 | 6.0 | 0.00 | 0.00 | 0.00 | 27 | 1020.6 |
| 20260905192034 | 92 | 110 | 1.0 | 4.0 | 0.00 | 0.00 | 0.00 | 29 | 1020.7 |
| 20260905191533 | 91 | 106 | 1.0 | 4.0 | 0.00 | 0.00 | 0.00 | 29 | 1020.8 |
| 20260905191034 | 90 | 30 | 1.0 | 2.0 | 0.00 | 0.00 | 0.00 | 29 | 1020.9 |
| 20260905190532 | 90 | 0 | 1.0 | 5.0 | 0.00 | 0.00 | 0.00 | 30 | 1020.9 |
| 20260905190031 | 89 | 121 | 1.0 | 5.0 | 0.00 | 0.00 | 0.00 | 32 | 1021.0 |
| 20260905185530 | 89 | 336 | 2.0 | 6.0 | 0.00 | 0.00 | 0.00 | 31 | 1021.3 |
| 20260905185028 | 89 | 111 | 2.0 | 6.0 | 0.00 | 0.00 | 0.00 | 32 | 1021.4 |
| 20260905184528 | 89 | 20 | 1.0 | 4.0 | 0.00 | 0.00 | 0.00 | 32 | 1021.3 |
| 20260905184028 | 89 | 81 | 1.0 | 3.0 | 0.00 | 0.00 | 0.00 | 32 | 1021.5 |
| 20260905183528 | 89 | 344 | 1.0 | 3.0 | 0.00 | 0.00 | 0.00 | 32 | 1021.5 |
| 20260905183026 | 89 | 65 | 1.0 | 5.0 | 0.00 | 0.00 | 0.00 | 32 | 1021.6 |
| 20260905182526 | 89 | 111 | 1.0 | 5.0 | 0.00 | 0.00 | 0.00 | 32 | 1021.7 |
| 20260905181018 | 87 | 141 | 1.0 | 3.0 | 0.00 | 0.00 | 0.00 | 35 | 1021.8 |
| 20260905180516 | 86 | 30 | 1.0 | 4.0 | 0.00 | 0.00 | 0.00 | 35 | 1021.9 |
| 20260905180014 | 86 | 86 | 1.0 | 4.0 | 0.00 | 0.00 | 0.00 | 35 | 1021.8 |
| 20260905175515 | 86 | 350 | 0.0 | 2.0 | 0.00 | 0.00 | 0.00 | 34 | 1021.9 |
| 20260905175012 | 86 | 88 | 0.0 | 3.0 | 0.00 | 0.00 | 0.00 | 36 | 1022.1 |
| 20260905173508 | 85 | 342 | 1.0 | 3.0 | 0.00 | 0.00 | 0.00 | 37 | 1021.9 |
| 20260905173008 | 85 | 346 | 1.0 | 3.0 | 0.00 | 0.00 | 0.00 | 36 | 1022.1 |
| 20260905172506 | 85 | 53 | 0.0 | 1.0 | 0.00 | 0.00 | 0.00 | 37 | 1022.1 |
| 20260905172004 | 85 | 53 | 0.0 | 2.0 | 0.00 | 0.00 | 0.00 | 36 | 1022.2 |
| 20260905171504 | 85 | 84 | 0.0 | 2.0 | 0.00 | 0.00 | 0.00 | 36 | 1022.2 |
| 20260905171002 | 84 | 82 | 0.0 | 2.0 | 0.00 | 0.00 | 0.00 | 37 | 1022.2 |
| 20260905170502 | 84 | 82 | 0.0 | 2.0 | 0.00 | 0.00 | 0.00 | 38 | 1022.2 |
| 20260905170000 | 83 | 82 | 0.0 | 2.0 | 0.00 | 0.00 | 0.00 | 38 | 1022.2 |
| 20260905165457 | 83 | 347 | 0.0 | 3.0 | 0.00 | 0.00 | 0.00 | 38 | 1022.2 |
| 20260905165000 | 82 | 347 | 1.0 | 3.0 | 0.00 | 0.00 | 0.00 | 38 | 1022.3 |
| 20260905164456 | 82 | 346 | 0.0 | 3.0 | 0.00 | 0.00 | 0.00 | 38 | 1022.3 |
| 20260905163453 | 81 | 325 | 1.0 | 3.0 | 0.00 | 0.00 | 0.00 | 39 | 1022.2 |
| 20260905162948 | 80 | 325 | 1.0 | 3.0 | 0.00 | 0.00 | 0.00 | 38 | 1022.2 |
| 20260905162446 | 80 | 333 | 1.0 | 4.0 | 0.00 | 0.00 | 0.00 | 38 | 1022.1 |
| 20260905161946 | 80 | 338 | 0.0 | 4.0 | 0.00 | 0.00 | 0.00 | 38 | 1022.1 |
| 20260905161446 | 80 | 333 | 0.0 | 1.0 | 0.00 | 0.00 | 0.00 | 37 | 1022.1 |
| 20260905160944 | 80 | 328 | 0.0 | 0.0 | 0.00 | 0.00 | 0.00 | 38 | 1021.9 |
| 20260905160444 | 79 | 328 | 0.0 | 0.0 | 0.00 | 0.00 | 0.00 | 38 | 1022.1 |
| 20260905154442 | 79 | 318 | 0.0 | 0.0 | 0.00 | 0.00 | 0.00 | 37 | 1022.1 |
| 20260905153442 | 79 | 318 | 0.0 | 1.0 | 0.00 | 0.00 | 0.00 | 39 | 1022.2 |
| 20260905152942 | 78 | 303 | 0.0 | 1.0 | 0.00 | 0.00 | 0.00 | 39 | 1022.2 |
| 20260905152440 | 78 | 303 | 0.0 | 1.0 | 0.00 | 0.00 | 0.00 | 39 | 1022.1 |
| 20260905151940 | 77 | 303 | 0.0 | 0.0 | 0.00 | 0.00 | 0.00 | 41 | 1022.1 |
| 20260905151438 | 77 | 303 | 0.0 | 0.0 | 0.00 | 0.00 | 0.00 | 39 | 1022.1 |
| 20260905150435 | 77 | 281 | 0.0 | 0.0 | 0.00 | 0.00 | 0.00 | 42 | 1021.9 |
| 20260905145936 | 76 | 281 | 0.0 | 0.0 | 0.00 | 0.00 | 0.00 | 41 | 1021.9 |
| 20260905145436 | 76 | 281 | 0.0 | 0.0 | 0.00 | 0.00 | 0.00 | 43 | 1021.9 |
| 20260905144936 | 76 | 281 | 0.0 | 0.0 | 0.00 | 0.00 | 0.00 | 43 | 1021.9 |
| 20260905144434 | 75 | 281 | 0.0 | 0.0 | 0.00 | 0.00 | 0.00 | 45 | 1021.8 |
| 20260905143432 | 74 | 281 | 0.0 | 0.0 | 0.00 | 0.00 | 0.00 | 49 | 1021.7 |
| 20260905142930 | 73 | 281 | 0.0 | 0.0 | 0.00 | 0.00 | 0.00 | 51 | 1021.7 |
| 20260905142428 | 72 | 271 | 0.0 | 0.0 | 0.00 | 0.00 | 0.00 | 52 | 1021.6 |
| 20260905141426 | 70 | 271 | 0.0 | 0.0 | 0.00 | 0.00 | 0.00 | 53 | 1021.5 |
| 20260905140926 | 69 | 271 | 0.0 | 0.0 | 0.00 | 0.00 | 0.00 | 51 | 1021.5 |
| 20260905140424 | 69 | 271 | 0.0 | 0.0 | 0.00 | 0.00 | 0.00 | 50 | 1021.4 |
| 20260905135924 | 69 | 271 | 0.0 | 0.0 | 0.00 | 0.00 | 0.00 | 53 | 1021.4 |
| 20260905135422 | 69 | 271 | 0.0 | 0.0 | 0.00 | 0.00 | 0.00 | 53 | 1021.4 |
| 20260905134920 | 69 | 271 | 0.0 | 0.0 | 0.00 | 0.00 | 0.00 | 52 | 1021.3 |
| 20260905134420 | 68 | 271 | 0.0 | 0.0 | 0.00 | 0.00 | 0.00 | 53 | 1021.1 |
| 20260905133420 | 67 | 271 | 0.0 | 0.0 | 0.00 | 0.00 | 0.00 | 53 | 1021.0 |
| 20260905132923 | 67 | 271 | 0.0 | 0.0 | 0.00 | 0.00 | 0.00 | 53 | 1020.9 |
| 20260905132418 | 67 | 271 | 0.0 | 2.0 | 0.00 | 0.00 | 0.00 | 52 | 1020.9 |
| 20260905130916 | 67 | 271 | 2.0 | 3.0 | 0.00 | 0.00 | 0.00 | 51 | 1020.7 |
| 20260905125912 | 67 | 270 | 0.0 | 2.0 | 0.00 | 0.00 | 0.00 | 50 | 1020.6 |
| 20260905125412 | 67 | 262 | 0.0 | 1.0 | 0.00 | 0.00 | 0.00 | 50 | 1020.5 |
| 20260905124910 | 67 | 262 | 0.0 | 3.0 | 0.00 | 0.00 | 0.00 | 50 | 1020.4 |
| 20260905123904 | 67 | 263 | 1.0 | 3.0 | 0.00 | 0.00 | 0.00 | 49 | 1020.4 |
| 20260905123402 | 68 | 263 | 1.0 | 3.0 | 0.00 | 0.00 | 0.00 | 48 | 1020.4 |
| 20260905122900 | 68 | 263 | 1.0 | 3.0 | 0.00 | 0.00 | 0.00 | 47 | 1020.2 |
| 20260905122400 | 68 | 262 | 2.0 | 3.0 | 0.00 | 0.00 | 0.00 | 47 | 1020.2 |
| 20260905121859 | 68 | 265 | 1.0 | 3.0 | 0.00 | 0.00 | 0.00 | 46 | 1020.2 |
| 20260905120859 | 69 | 264 | 0.0 | 0.0 | 0.00 | 0.00 | 0.00 | 47 | 1020.2 |
| 20260905120359 | 69 | 264 | 0.0 | 0.0 | 0.00 | 0.00 | 0.00 | 47 | 1020.2 |
| 20260905115854 | 69 | 264 | 1.0 | 2.0 | 0.00 | 0.00 | 0.00 | 46 | 1020.2 |
| 20260905115351 | 69 | 264 | 1.0 | 2.0 | 0.00 | 0.00 | 0.00 | 45 | 1020.1 |
| 20260905114350 | 69 | 263 | 0.0 | 3.0 | 0.00 | 0.00 | 0.00 | 48 | 1020.0 |
| 20260905113848 | 69 | 263 | 1.0 | 3.0 | 0.00 | 0.00 | 0.00 | 47 | 1020.1 |
| 20260905113348 | 69 | 263 | 0.0 | 2.0 | 0.00 | 0.00 | 0.00 | 48 | 1020.1 |
| 20260905112845 | 69 | 259 | 0.0 | 0.0 | 0.00 | 0.00 | 0.00 | 47 | 1020.1 |
| 20260905111844 | 69 | 259 | 0.0 | 3.0 | 0.00 | 0.00 | 0.00 | 47 | 1020.0 |
| 20260905111344 | 69 | 259 | 1.0 | 3.0 | 0.00 | 0.00 | 0.00 | 46 | 1020.0 |
| 20260905110844 | 69 | 279 | 1.0 | 2.0 | 0.00 | 0.00 | 0.00 | 46 | 1020.0 |
| 20260905110343 | 69 | 267 | 1.0 | 2.0 | 0.00 | 0.00 | 0.00 | 45 | 1020.0 |
| 20260905105843 | 69 | 267 | 1.0 | 2.0 | 0.00 | 0.00 | 0.00 | 46 | 1020.0 |
| 20260905105344 | 69 | 267 | 1.0 | 2.0 | 0.00 | 0.00 | 0.00 | 47 | 1020.0 |
| 20260905104844 | 69 | 271 | 1.0 | 2.0 | 0.00 | 0.00 | 0.00 | 46 | 1020.0 |
| 20260905103847 | 69 | 266 | 0.0 | 3.0 | 0.00 | 0.00 | 0.00 | 46 | 1019.9 |
| 20260905103343 | 70 | 300 | 0.0 | 0.0 | 0.00 | 0.00 | 0.00 | 45 | 1019.9 |
| 20260905102842 | 71 | 326 | 0.0 | 0.0 | 0.00 | 0.00 | 0.00 | 44 | 1019.9 |
| 20260905102341 | 72 | 268 | 0.0 | 0.0 | 0.00 | 0.00 | 0.00 | 43 | 1019.8 |
| 20260905101839 | 73 | 208 | 0.0 | 0.0 | 0.00 | 0.00 | 0.00 | 41 | 1019.8 |
| 20260905101339 | 73 | 208 | 0.0 | 1.0 | 0.00 | 0.00 | 0.00 | 40 | 1019.9 |
| 20260905100836 | 74 | 208 | 0.0 | 1.0 | 0.00 | 0.00 | 0.00 | 40 | 1019.8 |
| 20260905100336 | 74 | 216 | 1.0 | 2.0 | 0.00 | 0.00 | 0.00 | 40 | 1019.8 |
| 20260905095836 | 74 | 216 | 1.0 | 3.0 | 0.00 | 0.00 | 0.00 | 39 | 1019.8 |
| 20260905095335 | 74 | 211 | 2.0 | 4.0 | 0.00 | 0.00 | 0.00 | 39 | 1019.8 |
| 20260905094836 | 74 | 198 | 2.0 | 4.0 | 0.00 | 0.00 | 0.00 | 39 | 1019.9 |
| 20260905093836 | 74 | 196 | 2.0 | 3.0 | 0.00 | 0.00 | 0.00 | 37 | 1019.8 |
| 20260905084827 | 76 | 209 | 2.0 | 4.0 | 0.00 | 0.00 | 0.00 | 36 | 1019.8 |
| 20260905084325 | 76 | 215 | 2.0 | 4.0 | 0.00 | 0.00 | 0.00 | 36 | 1019.9 |
| 20260905083826 | 76 | 204 | 2.0 | 4.0 | 0.00 | 0.00 | 0.00 | 35 | 1019.9 |
| 20260905083325 | 76 | 191 | 2.0 | 4.0 | 0.00 | 0.00 | 0.00 | 35 | 1020.0 |
| 20260905082825 | 76 | 198 | 2.0 | 4.0 | 0.00 | 0.00 | 0.00 | 35 | 1019.9 |
| 20260905081824 | 75 | 202 | 2.0 | 3.0 | 0.00 | 0.00 | 0.00 | 36 | 1020.0 |
| 20260905081323 | 75 | 192 | 1.0 | 3.0 | 0.00 | 0.00 | 0.00 | 38 | 1020.0 |
| 20260905080821 | 75 | 192 | 0.0 | 3.0 | 0.00 | 0.00 | 0.00 | 38 | 1020.0 |
| 20260905080319 | 75 | 203 | 0.0 | 0.0 | 0.00 | 0.00 | 0.00 | 38 | 1020.0 |
| 20260905075817 | 75 | 203 | 1.0 | 2.0 | 0.00 | 0.00 | 0.00 | 39 | 1020.0 |
| 20260905074809 | 76 | 203 | 1.0 | 2.0 | 0.00 | 0.00 | 0.00 | 38 | 1020.0 |
| 20260905074310 | 76 | 234 | 0.0 | 2.0 | 0.00 | 0.00 | 0.00 | 38 | 1020.0 |
| 20260905073307 | 76 | 223 | 1.0 | 2.0 | 0.00 | 0.00 | 0.00 | 38 | 1020.0 |
| 20260905072807 | 76 | 223 | 1.0 | 2.0 | 0.00 | 0.00 | 0.00 | 38 | 1019.9 |
| 20260905071808 | 76 | 212 | 1.0 | 3.0 | 0.00 | 0.00 | 0.00 | 39 | 1019.9 |
| 20260905071301 | 76 | 201 | 1.0 | 4.0 | 0.00 | 0.00 | 0.00 | 39 | 1019.9 |
| 20260905070801 | 77 | 205 | 2.0 | 5.0 | 0.00 | 0.00 | 0.00 | 40 | 1019.9 |
| 20260905070301 | 76 | 200 | 2.0 | 5.0 | 0.00 | 0.00 | 0.00 | 41 | 1019.9 |
| 20260905065800 | 77 | 197 | 2.0 | 4.0 | 0.00 | 0.00 | 0.00 | 41 | 1019.8 |
| 20260905065300 | 77 | 207 | 2.0 | 4.0 | 0.00 | 0.00 | 0.00 | 42 | 1019.8 |
| 20260905064801 | 77 | 196 | 2.0 | 4.0 | 0.00 | 0.00 | 0.00 | 43 | 1019.8 |
| 20260905064303 | 77 | 198 | 3.0 | 7.0 | 0.00 | 0.00 | 0.00 | 43 | 1019.8 |
| 20260905062754 | 78 | 207 | 3.0 | 9.0 | 0.00 | 0.00 | 0.00 | 42 | 1019.8 |
| 20260905062254 | 78 | 183 | 3.0 | 9.0 | 0.00 | 0.00 | 0.00 | 42 | 1019.8 |
| 20260905061751 | 78 | 198 | 2.0 | 5.0 | 0.00 | 0.00 | 0.00 | 42 | 1019.8 |
| 20260905061250 | 77 | 203 | 2.0 | 4.0 | 0.00 | 0.00 | 0.00 | 43 | 1019.8 |
| 20260905060749 | 77 | 198 | 2.0 | 4.0 | 0.00 | 0.00 | 0.00 | 43 | 1019.8 |
| 20260905055746 | 77 | 187 | 2.0 | 5.0 | 0.00 | 0.00 | 0.00 | 42 | 1019.7 |
| 20260905054742 | 77 | 201 | 2.0 | 3.0 | 0.00 | 0.00 | 0.00 | 42 | 1019.7 |
| 20260905054242 | 78 | 191 | 2.0 | 4.0 | 0.00 | 0.00 | 0.00 | 42 | 1019.7 |
| 20260905053240 | 77 | 196 | 2.0 | 3.0 | 0.00 | 0.00 | 0.00 | 42 | 1019.6 |
| 20260905052740 | 77 | 191 | 2.0 | 3.0 | 0.00 | 0.00 | 0.00 | 42 | 1019.6 |
| 20260905052241 | 77 | 193 | 1.0 | 3.0 | 0.00 | 0.00 | 0.00 | 43 | 1019.6 |
| 20260905051741 | 77 | 195 | 1.0 | 3.0 | 0.00 | 0.00 | 0.00 | 43 | 1019.6 |
| 20260905051238 | 77 | 194 | 1.0 | 3.0 | 0.00 | 0.00 | 0.00 | 43 | 1019.6 |
| 20260905050737 | 76 | 205 | 1.0 | 3.0 | 0.00 | 0.00 | 0.00 | 43 | 1019.6 |
| 20260905050233 | 76 | 196 | 1.0 | 3.0 | 0.00 | 0.00 | 0.00 | 44 | 1019.7 |
| 20260905045732 | 76 | 196 | 1.0 | 3.0 | 0.00 | 0.00 | 0.00 | 43 | 1019.7 |
| 20260905045234 | 77 | 196 | 1.0 | 2.0 | 0.00 | 0.00 | 0.00 | 43 | 1019.6 |
| 20260905044730 | 77 | 196 | 1.0 | 2.0 | 0.00 | 0.00 | 0.00 | 42 | 1019.6 |
| 20260905044231 | 77 | 196 | 1.0 | 2.0 | 0.00 | 0.00 | 0.00 | 43 | 1019.6 |
| 20260905043228 | 77 | 196 | 1.0 | 4.0 | 0.00 | 0.00 | 0.00 | 43 | 1019.6 |
| 20260905042728 | 76 | 175 | 1.0 | 4.0 | 0.00 | 0.00 | 0.00 | 44 | 1019.7 |
| 20260905042226 | 76 | 196 | 1.0 | 2.0 | 0.00 | 0.00 | 0.00 | 44 | 1019.6 |
| 20260905041727 | 76 | 196 | 0.0 | 2.0 | 0.00 | 0.00 | 0.00 | 44 | 1019.6 |
| 20260905041227 | 76 | 196 | 0.0 | 3.0 | 0.00 | 0.00 | 0.00 | 45 | 1019.6 |
| 20260905040222 | 76 | 196 | 1.0 | 3.0 | 0.00 | 0.00 | 0.00 | 44 | 1019.4 |
| 20260905035722 | 77 | 196 | 1.0 | 2.0 | 0.00 | 0.00 | 0.00 | 44 | 1019.3 |
| 20260905035220 | 77 | 196 | 1.0 | 4.0 | 0.00 | 0.00 | 0.00 | 44 | 1019.3 |
| 20260905034717 | 77 | 196 | 1.0 | 4.0 | 0.00 | 0.00 | 0.00 | 44 | 1019.3 |
| 20260905033718 | 77 | 197 | 1.0 | 2.0 | 0.00 | 0.00 | 0.00 | 43 | 1019.3 |
| 20260905033216 | 77 | 197 | 1.0 | 3.0 | 0.00 | 0.00 | 0.00 | 43 | 1019.3 |
| 20260905032715 | 77 | 197 | 2.0 | 3.0 | 0.00 | 0.00 | 0.00 | 43 | 1019.3 |